Theta_e
300 299 299 299 299 299 298 299 299 299 300 296 294 298 293 294 289 300 303 310 308 301 293 296 294 293 296 301 298 299 297 296 296 295 296 295 298 297 296 296 294 296 295 294 293 293 290 291 289 292 293 294 294 290 291 293 295 296 293 295 294 292 286 285 286 291 293 295 296 293 292 293 291 292 293 291 288 289 286 285 285 282 283 282 282 279 284
300 299 299 298 299 299 298 298 298 298 299 295 296 294 292 293 293 296 303 306 307 297 286 288 290 292 296 296 295 299 297 296 294 294 296 296 295 294 295 295 297 294 296 294 291 295 285 291 291 290 293 291 291 291 292 293 289 291 290 290 292 286 287 286 280 281 284 287 291 290 292 292 289 288 290 290 291 289 287 286 286 280 281 282 280 275 283
300 300 299 299 298 299 298 298 298 298 299 298 296 291 292 291 293 293 296 302 301 292 296 291 291 291 291 292 291 293 295 297 296 296 295 298 297 294 293 295 296 294 294 290 290 290 291 286 292 292 292 292 291 291 291 292 291 291 291 291 293 287 286 284 278 275 274 274 276 280 282 285 287 288 288 289 287 286 284 280 283 278 283 284 280 280 288
300 300 299 299 299 299 299 298 298 297 299 299 295 290 289 288 281 290 291 296 296 294 295 295 293 291 290 289 291 292 290 294 297 297 295 298 297 297 296 293 294 293 290 289 289 290 292 288 287 290 289 290 289 287 289 290 292 291 290 288 290 286 286 286 284 281 279 281 284 287 288 285 282 285 287 286 288 287 285 283 279 277 280 279 281 282 283
300 300 299 299 300 299 299 299 298 298 299 300 295 290 289 289 284 287 285 292 291 290 293 291 293 289 293 286 291 288 290 292 292 298 291 296 295 294 294 293 291 289 290 288 289 290 289 291 289 288 289 290 289 287 288 288 288 289 288 289 288 285 283 285 285 284 284 286 286 288 286 282 283 283 283 286 285 285 283 280 278 284 279 274 282 284 282
300 300 300 300 300 300 299 298 298 299 299 300 295 286 289 283 287 287 289 288 285 286 286 291 290 291 291 289 292 287 289 290 287 292 295 293 293 291 291 292 293 292 290 289 285 287 287 287 285 288 286 286 287 286 287 286 285 286 286 290 287 282 280 283 284 282 285 286 286 286 284 284 283 284 283 283 284 283 280 281 283 282 278 275 281 283 281
301 301 301 301 301 301 300 299 298 299 299 299 295 285 286 287 287 286 289 285 285 287 287 288 288 288 289 287 290 287 288 287 291 291 289 291 289 293 285 288 289 290 290 288 285 287 282 283 286 284 284 281 283 284 286 286 285 285 284 285 286 284 280 283 283 280 281 282 283 284 282 282 282 282 282 283 282 282 283 282 284 283 281 283 283 283 282
301 301 301 301 301 301 300 300 299 300 299 298 291 289 286 285 285 284 286 285 284 284 285 285 286 284 287 284 286 287 287 287 290 290 288 285 288 292 287 286 284 284 284 285 284 286 285 284 282 285 283 282 283 281 283 284 284 284 282 284 284 283 278 282 278 278 277 280 282 282 281 280 277 280 281 281 281 281 282 282 282 282 281 282 282 281 280
301 301 301 301 301 301 301 300 300 300 300 293 290 287 289 288 290 289 284 283 283 283 284 283 284 283 284 283 285 285 285 285 286 285 286 286 286 288 286 285 283 281 283 283 284 285 283 284 284 284 283 281 285 282 282 284 279 282 280 284 281 283 277 282 278 274 274 279 279 279 279 278 276 276 277 278 278 277 279 278 281 280 278 280 280 277 278
301 301 301 301 301 301 301 300 300 300 300 293 291 286 290 289 290 289 287 280 285 281 282 281 282 279 284 285 284 284 284 282 284 283 285 283 285 285 286 285 285 284 283 283 284 285 285 285 285 286 285 286 284 284 284 283 281 280 279 282 279 280 278 275 276 272 272 277 276 275 274 273 271 272 276 278 278 279 280 281 282 281 281 278 275 277 281
301 301 301 301 301 301 301 300 300 300 298 292 290 288 289 288 287 287 287 278 280 281 281 280 280 282 282 283 283 283 282 283 284 281 281 284 283 285 285 283 283 282 283 285 289 288 287 287 286 287 285 285 284 284 284 284 283 282 280 279 279 280 278 276 278 271 271 275 271 274 270 264 267 279 282 280 278 279 277 277 279 281 283 280 282 280 278
301 301 300 300 300 300 300 300 300 300 299 296 296 292 292 290 290 289 283 277 278 282 281 279 281 281 281 281 282 281 281 282 281 283 281 283 284 284 283 282 282 278 286 287 287 287 287 288 286 285 284 283 283 283 283 282 282 284 284 280 278 277 277 276 276 271 270 270 269 269 263 265 276 281 283 281 281 280 279 280 281 279 279 279 279 279 279
302 301 301 301 301 301 301 300 301 300 301 297 295 291 291 292 291 287 284 280 275 279 277 278 281 280 281 281 280 280 281 281 281 282 282 280 280 282 283 282 281 283 288 286 286 284 279 277 278 277 277 276 276 278 278 279 280 282 283 283 279 276 276 274 272 273 271 270 269 261 264 274 275 278 281 279 280 280 280 278 281 279 281 282 281 281 280
301 302 301 301 301 301 301 301 300 300 301 298 294 294 292 291 289 286 284 279 277 280 281 279 280 279 280 280 280 280 280 279 281 282 278 282 280 280 283 285 285 287 286 286 283 281 276 276 271 272 272 270 270 269 274 277 278 278 280 281 282 279 277 275 270 274 266 270 269 268 274 273 275 276 279 278 278 279 277 272 277 279 281 280 280 279 281
301 301 301 301 301 301 301 301 300 300 301 299 297 295 292 293 293 290 288 283 276 280 281 274 278 279 280 280 280 279 279 279 278 278 280 281 279 282 284 285 286 286 286 283 278 278 274 270 266 267 268 267 262 265 272 269 274 275 276 277 280 280 275 276 270 268 273 267 267 268 267 264 271 279 279 282 281 281 280 278 274 280 279 280 279 277 278
301 301 301 301 301 302 301 301 301 301 301 300 297 294 292 294 294 294 289 283 280 274 278 282 283 280 279 279 280 278 278 278 278 278 277 278 278 281 283 283 284 285 284 281 279 275 271 268 265 265 265 263 265 264 266 268 269 273 276 277 277 279 279 277 274 270 273 268 266 265 264 267 276 275 278 278 278 279 279 276 270 278 276 277 277 278 279
301 301 301 301 302 302 301 302 302 300 301 300 295 295 293 295 292 291 287 284 282 277 285 284 284 282 280 278 280 278 280 277 279 275 274 276 278 278 279 280 283 284 282 279 276 274 271 267 266 266 266 263 264 267 266 265 263 268 273 275 274 274 275 274 271 270 270 269 267 265 271 268 275 277 280 280 280 282 277 266 267 276 276 278 278 278 278
301 301 301 301 301 301 301 301 301 302 302 301 297 294 293 296 295 293 288 285 281 280 284 285 282 280 278 280 279 281 281 279 279 279 278 275 273 276 277 277 278 281 285 277 276 272 271 269 267 267 266 272 268 268 265 267 259 266 268 272 270 271 271 273 268 269 270 271 268 270 270 276 278 278 281 279 280 278 268 264 273 277 277 278 279 279 279
302 300 300 301 301 301 301 301 301 301 301 301 298 295 295 296 294 293 289 285 283 279 286 287 287 284 285 286 283 283 283 282 281 277 274 274 277 278 277 275 281 275 281 274 276 272 271 270 272 269 268 269 271 266 271 266 267 268 267 266 266 267 268 269 271 268 268 269 267 267 271 276 279 281 280 280 276 267 267 276 279 278 278 280 279 279 280
301 301 301 301 301 302 302 301 301 301 301 301 298 292 294 296 294 294 288 284 285 283 286 284 286 283 286 283 280 280 280 281 282 278 274 274 277 277 279 274 278 273 274 277 271 276 271 269 271 272 269 270 270 273 268 269 273 268 268 271 270 270 266 267 268 269 270 269 266 265 261 273 278 279 277 280 272 274 279 279 280 280 279 280 280 280 280
300 300 301 301 301 300 301 301 301 301 301 301 299 293 291 296 294 293 294 290 286 282 283 289 288 287 287 285 286 286 284 281 281 279 281 279 281 279 271 271 276 275 272 276 269 272 272 269 272 271 272 273 272 271 267 267 268 275 274 272 271 276 267 268 270 273 266 266 264 264 272 277 277 277 273 278 280 282 281 280 278 281 281 280 280 281 281
300 300 301 301 300 300 301 300 300 301 301 301 299 293 290 294 295 294 293 290 287 284 285 290 290 289 290 291 290 290 288 288 288 287 282 279 281 280 278 273 273 275 274 274 271 269 270 269 270 267 268 270 270 269 266 267 267 269 270 273 266 276 271 274 270 275 270 268 272 275 277 279 279 279 280 281 282 283 282 281 280 279 280 282 280 280 281
300 300 299 300 300 300 301 300 300 301 300 300 299 293 289 293 293 295 289 286 288 289 289 288 289 289 291 291 292 292 292 292 291 289 287 282 279 281 279 277 276 278 276 280 277 277 274 269 270 274 269 272 271 268 265 270 269 269 269 276 275 278 278 277 274 273 278 279 279 280 279 279 280 281 281 281 281 282 282 281 280 281 282 281 280 280 279
299 300 300 300 299 299 300 301 300 300 300 301 300 293 291 294 294 291 288 287 285 282 285 286 284 282 284 285 290 290 290 290 290 290 291 288 279 279 282 282 282 277 276 279 283 279 274 273 274 274 270 274 272 270 268 267 269 271 271 272 274 276 277 274 272 274 272 268 278 277 277 280 280 280 282 282 282 282 282 281 281 281 280 278 278 277 277
299 299 299 299 300 299 299 300 300 300 300 300 299 297 294 291 292 290 286 280 281 280 276 282 283 287 290 293 293 290 290 292 292 290 289 288 286 281 279 283 284 281 280 280 279 276 274 272 272 271 269 275 275 270 275 271 270 275 269 272 273 272 278 273 273 273 271 271 276 277 279 280 280 280 279 279 281 282 282 281 279 278 276 275 275 275 274
299 299 300 301 300 299 299 300 300 299 299 300 299 292 290 290 292 293 290 289 286 283 277 277 282 288 290 289 287 290 293 292 290 290 289 289 289 287 286 285 283 286 285 283 281 278 276 274 276 275 272 273 280 273 272 275 272 274 273 273 276 276 276 270 273 271 274 277 278 278 279 279 279 280 281 281 281 281 280 277 276 275 274 273 272 273 273
299 298 299 300 299 299 300 299 299 299 299 299 297 294 291 292 293 290 288 287 283 278 280 276 282 281 282 285 290 290 291 291 290 289 289 289 288 288 287 285 284 283 282 280 282 280 278 276 276 273 276 275 279 276 276 273 274 272 271 275 278 275 271 274 273 270 270 271 274 277 272 272 277 279 280 281 278 277 276 274 273 273 272 272 271 271 271
298 299 298 298 298 298 299 299 298 298 299 298 297 294 290 289 291 292 293 290 286 280 280 278 277 279 281 278 286 289 290 290 290 288 288 288 288 286 285 284 283 281 280 279 276 276 275 274 273 278 279 279 276 273 278 277 276 273 273 274 278 274 275 275 272 271 271 276 278 279 278 278 278 279 277 275 274 275 275 274 273 272 271 270 269 269 269
298 298 298 299 298 298 298 298 299 299 299 297 291 288 287 289 291 293 293 292 289 286 283 281 280 276 275 281 286 286 289 289 288 288 287 287 287 286 285 284 281 282 281 281 279 278 277 276 280 277 276 280 277 274 275 269 270 269 272 277 278 279 280 278 277 277 278 279 279 280 278 276 278 279 275 273 272 273 273 271 271 270 268 268 267 268 267
298 298 297 297 297 298 298 298 298 298 298 294 287 285 282 284 290 291 294 292 289 287 280 278 275 278 282 280 279 283 283 287 287 287 286 285 285 285 285 284 282 283 282 280 279 275 278 278 279 281 281 284 276 275 272 272 270 272 278 279 279 280 280 280 280 278 276 280 280 280 279 279 277 273 272 270 269 270 271 270 268 268 267 267 266 266 267
297 297 298 297 297 297 297 297 298 298 297 288 285 280 277 277 286 291 293 292 291 287 282 282 278 283 279 281 280 281 283 284 285 285 285 285 285 285 286 284 283 284 279 280 279 279 280 276 278 279 282 281 279 274 272 272 270 272 277 279 279 279 279 279 281 281 280 280 280 274 274 275 273 271 270 268 268 267 267 266 266 265 265 264 264 264 264
297 296 297 298 297 297 297 297 297 297 295 287 284 283 284 286 289 291 294 293 290 285 281 277 277 277 277 279 279 281 284 285 285 283 284 285 283 285 284 283 281 283 282 279 280 279 277 279 278 278 278 281 281 274 274 272 270 272 278 279 280 280 281 280 280 280 280 275 274 273 275 274 272 273 273 267 266 266 266 265 265 264 263 263 263 263 263
296 296 297 296 296 296 296 296 297 296 292 293 295 297 295 290 294 294 295 292 287 283 285 279 274 276 274 274 274 274 279 281 281 282 279 285 281 284 279 283 282 281 285 280 277 276 280 279 280 277 280 283 277 275 272 271 273 278 279 280 280 280 280 281 279 274 272 270 274 274 275 276 271 267 266 266 266 265 265 263 263 262 261 260 260 261 262
296 296 296 296 296 296 296 296 296 296 294 290 285 287 291 293 294 294 290 288 285 284 283 278 274 273 273 275 271 276 283 279 278 281 276 283 283 282 279 281 281 278 281 277 280 278 279 279 277 278 280 277 279 274 270 273 278 278 279 280 280 281 280 276 272 272 269 268 266 267 267 266 266 266 265 265 264 264 263 262 260 259 259 259 260 261 261
295 295 296 296 296 295 295 295 291 289 285 286 286 290 293 295 295 295 291 287 280 278 278 277 278 274 272 272 271 274 281 279 276 279 277 279 283 279 280 276 279 275 277 283 278 277 276 277 280 275 272 278 274 271 273 275 277 279 279 279 280 279 272 271 272 270 266 265 264 264 264 264 264 264 264 264 263 263 261 260 260 259 259 260 260 259 259
294 294 295 295 294 293 291 291 289 286 283 284 286 292 295 295 295 293 290 288 284 279 277 277 277 274 275 270 270 273 281 277 276 279 278 277 276 280 279 278 272 277 281 278 274 278 275 281 277 272 277 272 271 274 275 278 278 279 279 279 280 279 276 275 272 265 263 261 261 262 263 262 263 264 263 262 262 261 259 259 259 259 258 258 258 258 257
295 294 295 293 291 288 284 285 289 288 286 290 291 295 296 294 291 289 287 285 284 283 279 278 274 274 275 274 272 273 279 271 277 274 275 274 273 276 276 275 272 278 275 274 275 274 278 283 276 272 273 271 274 278 279 279 279 279 279 279 272 268 266 264 264 264 261 259 260 261 261 261 261 261 261 261 260 259 258 257 257 256 255 255 255 255 255
294 294 288 284 283 281 280 283 285 290 294 293 293 288 287 287 280 282 282 279 282 281 278 279 275 275 276 274 270 279 278 273 277 273 270 273 274 270 275 274 274 277 268 272 274 281 277 275 273 272 273 277 279 279 280 280 274 269 269 267 266 265 264 262 262 263 261 261 261 260 259 258 259 261 260 259 257 256 257 257 256 256 255 255 254 254 254
291 288 285 284 282 279 280 281 291 296 292 291 289 282 279 280 278 275 275 277 279 274 278 277 275 277 276 275 275 280 278 274 272 273 270 276 273 269 274 268 276 275 270 270 273 280 271 272 272 272 271 275 275 278 274 267 265 265 264 264 263 263 262 261 262 263 265 266 263 259 261 262 262 260 258 256 256 256 257 256 255 255 254 254 253 253 253
284 281 281 280 279 282 288 288 294 291 286 280 282 281 274 278 275 270 277 272 272 275 276 270 278 277 278 275 273 273 280 275 270 270 272 273 278 271 272 271 274 272 267 268 270 277 270 267 269 270 269 274 275 275 267 265 263 261 261 261 261 261 261 260 259 259 258 257 257 257 256 256 256 256 255 254 254 253 253 253 253 253 252 252 253 252 252
283 280 280 279 280 279 283 288 285 280 281 277 275 275 273 271 274 273 274 271 271 269 274 275 278 276 279 279 277 273 280 278 273 276 275 270 278 275 269 267 274 268 266 267 271 267 265 263 262 264 270 275 276 267 260 261 260 258 258 258 258 258 259 258 258 257 256 256 255 255 254 253 253 253 254 253 252 252 252 252 251 251 251 251 251 251 253
284 284 282 283 282 283 285 282 281 278 277 277 272 269 272 271 269 267 272 269 270 269 270 275 273 275 275 278 277 278 274 274 274 276 274 269 277 272 270 269 270 266 264 269 267 265 265 265 263 264 269 271 260 256 259 257 256 255 256 257 257 257 257 256 255 255 255 254 254 254 253 253 251 251 251 251 251 251 250 251 251 251 251 251 251 251 251
289 285 282 279 281 280 281 276 277 276 271 269 267 265 268 264 268 268 268 270 268 270 271 272 272 280 277 277 273 275 275 278 275 273 272 270 277 274 269 267 265 264 267 267 267 265 263 264 263 269 272 266 256 256 256 256 255 256 255 255 254 256 256 255 254 254 254 253 251 251 251 250 250 250 250 249 249 248 249 250 250 250 250 250 250 251 251
284 283 280 278 276 277 278 268 277 270 268 269 267 265 266 263 266 263 261 266 267 268 272 272 273 275 272 277 275 274 275 276 278 271 269 273 271 267 269 265 266 269 268 265 264 263 265 261 267 271 263 255 253 255 254 254 254 254 253 254 254 255 254 254 254 252 252 252 252 251 250 249 250 250 250 249 249 249 249 249 250 251 251 251 250 251 251
279 277 276 274 272 276 272 267 275 270 267 267 270 265 266 266 268 265 267 270 272 272 275 275 276 275 272 271 274 275 276 270 276 271 268 271 268 270 266 266 267 266 266 264 262 261 258 260 266 264 258 253 254 253 254 253 253 253 252 252 252 253 253 252 252 252 251 251 250 250 249 249 249 249 250 249 249 249 249 249 250 250 250 250 250 250 251
276 274 273 269 266 272 270 266 266 262 268 270 268 267 267 268 269 269 270 267 269 270 273 274 274 273 269 269 272 271 271 271 269 270 270 269 266 265 268 267 268 265 263 262 259 260 264 269 271 271 264 258 254 253 252 251 251 251 251 250 251 250 250 250 250 249 249 250 250 249 249 250 249 249 249 250 250 250 249 250 251 250 250 250 250 250 251
276 277 273 272 269 270 271 266 266 267 266 266 266 270 271 271 269 267 263 264 272 271 272 271 273 272 271 268 267 268 268 269 268 270 270 265 265 267 270 266 263 263 261 260 260 260 263 268 269 258 254 254 252 251 250 250 250 249 250 250 249 249 249 248 248 248 249 249 249 248 248 248 249 249 250 249 249 249 250 250 250 251 250 250 250 250 251
272 275 273 266 265 268 266 267 263 259 257 260 259 255 255 256 264 266 262 259 267 273 272 272 270 270 269 269 270 269 268 268 267 268 270 268 268 263 264 262 261 261 260 261 265 267 269 267 259 253 253 253 251 249 249 249 249 248 249 249 248 248 248 247 247 247 248 247 248 248 248 249 249 249 249 249 249 249 249 249 249 249 249 249 249 250 251
273 271 270 268 265 262 263 261 263 269 262 258 258 259 260 265 266 263 260 258 266 273 273 272 269 271 267 270 269 269 267 270 265 266 268 266 264 262 262 259 259 259 262 262 268 269 267 259 253 251 250 250 250 250 250 249 249 248 248 248 248 248 247 248 247 248 248 248 248 248 248 248 248 248 248 248 248 249 250 249 249 249 249 250 250 251 253
270 267 264 262 262 263 261 262 264 264 261 260 261 262 261 264 262 261 260 262 265 269 273 275 275 272 268 267 264 266 266 267 266 268 265 264 263 262 260 256 257 260 266 265 262 257 252 252 251 250 250 249 249 249 248 248 248 249 247 247 247 248 248 249 248 249 248 248 248 247 247 247 248 248 248 248 249 249 249 249 249 249 250 251 252 254 254
266 266 262 261 265 265 265 263 265 263 262 265 263 262 261 262 262 262 263 263 265 268 268 267 269 266 265 264 263 262 264 268 266 266 265 265 263 261 262 262 264 266 265 257 254 254 253 253 252 251 249 249 250 248 249 249 248 248 247 246 247 248 248 248 247 247 248 248 247 248 247 247 248 248 249 249 248 248 248 249 251 251 252 254 255 255 255
266 264 263 260 259 257 259 262 262 263 263 263 263 263 264 263 262 260 261 264 269 270 268 264 265 264 263 263 265 264 264 265 264 262 261 262 261 260 259 265 267 261 258 254 251 251 250 250 250 250 249 249 249 248 248 246 245 243 243 243 243 244 245 247 248 248 247 246 246 245 246 246 247 247 247 248 247 247 249 251 253 253 254 255 255 256 255
Wind_Speed
2 1 1 2 2 2 1 1 3 5 6 2 2 1 4 3 1 2 3 4 13 11 7 5 8 11 6 5 2 0 3 2 1 2 1 5 3 2 4 6 7 6 9 7 9 7 7 5 10 7 7 9 3 4 6 2 3 2 2 1 1 3 2 4 11 9 10 14 3 4 2 3 4 5 5 5 13 10 10 10 5 5 5 8 8 12 3
6 3 2 3 4 4 1 1 2 3 5 1 1 2 2 1 0 0 1 2 8 8 9 10 12 9 6 8 11 6 5 2 2 4 3 5 2 4 4 2 6 7 1 2 9 3 6 4 5 5 2 3 3 4 6 3 1 1 3 2 2 3 4 3 4 4 4 6 5 4 4 3 1 2 3 3 5 4 4 4 4 8 7 11 10 12 3
5 6 5 4 5 4 2 2 0 2 3 1 0 2 1 1 1 1 3 2 1 8 3 5 8 11 13 11 13 12 9 6 11 10 8 2 3 2 3 6 1 3 2 1 1 1 8 4 2 3 2 1 2 3 5 4 3 1 1 1 1 1 3 3 7 6 7 7 8 7 2 3 4 4 5 2 2 8 9 7 5 7 0 5 6 5 1
5 4 5 5 6 5 3 1 1 1 3 4 2 1 1 2 4 2 1 1 1 3 1 1 7 9 10 11 13 13 11 7 4 7 8 10 4 8 6 2 2 6 3 4 7 8 5 6 3 2 2 2 1 0 4 4 1 4 3 2 1 1 1 3 7 10 12 12 7 1 2 3 5 7 7 11 10 7 6 8 10 11 6 9 8 13 15
6 7 7 7 6 6 5 4 2 2 4 5 2 1 1 2 3 4 5 2 3 3 0 3 3 6 8 7 4 13 16 11 4 7 6 6 11 4 6 7 7 5 10 11 11 12 9 7 9 9 8 1 1 3 1 2 6 3 1 3 1 1 5 8 11 10 12 12 15 14 2 7 8 12 16 12 12 8 8 10 14 7 12 16 7 14 12
9 8 8 9 8 6 6 5 4 4 5 3 1 1 1 2 1 2 2 2 6 7 7 7 6 1 4 7 2 3 6 9 8 1 3 3 2 8 2 6 13 10 9 6 5 4 6 4 5 2 0 0 1 1 2 2 5 1 0 2 2 2 7 3 4 7 11 13 12 7 4 6 8 13 15 18 16 12 13 13 14 13 13 17 14 18 19
11 11 9 8 8 8 8 7 5 5 4 5 1 2 2 1 1 1 3 3 2 1 3 4 6 7 5 3 4 7 6 9 6 4 1 1 1 6 7 5 6 6 2 5 6 6 7 6 2 2 0 1 1 2 3 4 3 4 2 2 0 1 5 5 3 5 7 9 11 9 9 10 11 13 15 16 19 21 18 18 17 17 18 18 18 21 24
11 10 10 10 10 10 9 8 7 8 8 4 1 1 1 1 1 1 3 4 3 1 2 2 2 5 4 5 7 6 8 11 6 1 1 2 3 2 3 2 3 2 2 0 3 2 2 1 6 1 1 5 2 2 4 2 1 2 1 1 3 2 5 6 0 6 7 10 12 12 10 12 13 14 15 18 20 20 18 19 17 18 19 21 21 22 22
13 12 12 12 11 11 10 9 8 9 7 1 2 1 0 1 2 1 2 2 2 3 1 2 3 4 3 6 4 1 4 6 2 2 4 3 6 4 5 4 3 1 2 2 5 0 3 3 3 3 4 5 1 1 1 6 2 3 0 0 3 2 4 4 3 6 8 8 9 9 10 11 11 14 18 21 20 17 16 15 13 14 15 17 16 13 11
13 13 12 12 12 12 12 11 10 11 8 2 1 2 1 1 1 1 1 1 2 4 3 3 4 6 3 4 2 2 2 1 2 2 2 5 5 3 4 2 2 1 2 5 2 2 2 2 1 1 2 2 3 2 5 4 2 2 1 1 1 3 1 1 5 9 8 12 3 3 4 8 11 17 20 17 18 20 18 16 16 18 15 11 12 9 2
15 14 15 14 14 13 13 13 12 12 9 4 3 2 2 3 2 2 1 2 2 5 4 4 6 2 5 1 4 2 3 1 1 6 2 4 3 5 4 4 1 4 7 1 4 4 1 1 2 3 3 5 6 6 7 9 9 8 3 2 2 4 5 7 3 7 8 11 3 1 2 10 14 2 4 4 9 7 10 12 13 10 7 4 2 2 3
13 16 16 16 15 15 14 14 14 13 11 7 3 2 2 2 3 1 3 4 2 3 5 4 6 3 5 2 3 3 5 4 3 3 3 3 3 1 2 1 2 2 2 5 3 2 1 2 2 3 5 6 8 9 10 13 12 10 10 9 7 9 8 8 1 7 8 3 2 6 12 15 3 3 2 3 3 5 10 11 11 1 2 2 3 5 4
13 12 11 9 10 11 13 16 17 16 15 5 6 6 3 2 3 2 2 2 2 6 5 3 2 2 3 5 2 3 2 1 1 2 1 2 2 3 3 2 4 2 5 5 4 1 1 2 3 2 4 2 5 8 13 15 14 14 13 14 11 10 9 2 2 2 2 2 7 6 6 2 5 7 4 1 3 9 9 11 8 5 7 8 7 8 6
18 16 15 15 15 15 15 14 14 16 17 10 8 6 4 4 5 3 4 2 3 4 5 1 2 4 7 8 5 3 3 2 2 1 2 3 6 6 5 4 1 3 2 3 2 2 1 0 3 1 2 2 2 3 4 8 10 12 11 11 11 13 6 4 6 4 6 6 9 15 9 14 13 12 3 5 4 3 3 4 2 7 6 6 5 3 2
18 19 19 19 19 18 18 19 18 16 14 16 7 4 6 5 5 4 1 2 2 2 6 5 7 11 10 6 5 5 4 3 3 3 2 1 2 4 4 2 2 2 1 2 1 1 2 1 0 2 2 1 2 4 2 1 2 4 3 4 9 11 13 9 5 5 6 7 8 7 6 7 2 2 0 0 2 2 3 3 6 4 5 2 1 1 1
18 19 19 19 20 19 20 20 20 19 17 16 7 6 6 7 5 3 3 2 2 3 7 12 5 6 6 6 8 8 5 4 4 2 1 2 3 2 1 2 0 2 4 4 1 2 0 3 3 2 4 3 2 2 3 2 3 2 5 1 5 7 10 6 9 7 3 4 8 7 7 5 5 3 2 1 1 1 1 2 9 1 8 3 2 3 4
19 19 20 20 19 19 20 20 19 21 20 17 9 8 8 8 8 7 4 2 4 6 3 7 7 5 4 2 3 4 5 4 5 2 2 2 3 2 2 1 0 3 4 3 1 2 1 1 0 1 3 3 1 3 1 1 1 2 3 6 6 6 6 7 8 9 10 9 9 10 4 5 1 4 3 1 3 3 2 11 7 3 6 5 3 5 8
20 19 19 20 20 20 20 20 21 21 20 21 11 9 7 9 9 7 4 5 7 8 5 9 12 6 7 6 5 3 4 1 1 0 0 1 2 1 2 1 2 2 4 4 4 2 5 3 6 5 4 3 3 2 4 3 2 3 2 2 3 4 2 7 11 10 10 13 10 8 8 5 7 7 10 5 1 1 5 13 1 5 5 5 7 9 9
19 21 20 21 21 20 20 21 21 22 21 22 11 8 7 10 10 10 5 4 7 6 7 11 12 10 2 4 2 4 3 5 5 3 1 1 2 2 5 2 2 2 5 5 2 5 6 6 1 1 2 2 3 4 1 2 3 1 3 1 1 2 2 3 2 8 10 10 11 11 9 6 7 10 2 6 2 5 10 1 5 3 5 7 9 10 10
20 21 22 20 21 20 20 21 21 21 21 23 14 8 5 11 12 15 11 7 5 10 7 12 11 13 10 10 6 6 3 2 4 3 4 4 1 4 3 2 1 3 0 5 4 4 4 6 6 3 4 4 3 2 1 4 1 5 3 3 2 4 4 5 5 3 3 4 7 6 8 1 5 5 5 6 4 6 1 3 5 2 5 7 8 9 10
23 22 22 22 22 23 22 22 22 20 21 22 15 8 7 9 11 10 11 10 6 8 9 8 8 14 12 13 15 13 13 10 10 7 6 2 4 3 4 4 6 4 5 6 8 6 4 5 4 4 2 2 3 3 5 0 4 6 4 4 2 4 2 4 3 4 4 6 7 6 3 3 3 5 5 5 11 3 3 5 8 8 8 7 6 6 6
22 22 22 23 23 23 21 22 24 21 21 22 18 7 9 8 9 11 10 4 8 9 1 4 10 12 14 15 12 12 14 15 12 9 5 5 3 8 1 5 5 4 3 3 2 1 1 2 2 2 4 4 0 5 2 2 6 0 4 1 3 8 9 7 8 3 5 6 6 2 2 2 4 6 7 6 8 8 8 5 8 9 9 4 5 8 7
23 21 22 23 24 23 22 23 23 21 22 24 19 9 10 8 9 8 7 7 5 3 1 2 0 5 6 10 10 10 12 10 7 7 7 5 5 4 4 4 4 1 2 4 6 5 4 7 7 3 0 3 8 4 2 6 5 2 3 7 6 4 6 1 2 5 6 7 10 3 3 7 8 9 8 9 11 11 8 8 9 8 7 3 6 6 5
25 23 21 21 23 23 22 21 23 22 24 23 17 6 7 8 9 8 5 6 6 7 7 6 5 9 14 18 11 5 8 10 12 14 9 9 5 5 2 5 3 1 1 4 0 2 2 1 2 2 5 4 5 5 7 7 8 5 5 7 3 9 5 3 5 4 2 6 10 10 11 13 13 13 10 9 9 9 9 9 8 7 1 1 1 2 2
23 24 24 23 23 22 22 21 21 21 24 24 19 11 6 4 7 11 9 6 6 8 8 4 14 18 14 7 7 12 15 12 10 12 12 12 13 9 10 9 11 11 12 5 3 4 1 4 3 1 8 5 6 8 6 6 8 8 7 10 4 7 7 6 10 7 10 12 16 11 12 12 11 10 11 13 13 13 9 2 1 1 3 2 2 2 2
23 25 24 22 23 24 24 22 21 23 24 24 18 7 8 9 9 11 8 6 1 3 7 8 8 2 4 8 11 14 11 12 13 16 16 14 13 15 12 5 2 7 4 5 6 9 4 3 4 5 5 6 9 7 6 9 3 2 8 14 9 2 7 3 4 7 9 12 15 17 16 14 16 15 13 12 13 11 3 2 2 2 3 3 2 1 1
22 23 24 24 25 25 22 22 23 23 24 21 14 7 8 6 10 14 12 11 6 4 6 7 7 1 2 12 7 5 10 13 13 15 14 16 18 13 10 9 9 7 6 3 4 6 5 6 6 9 9 6 6 6 5 3 6 5 6 12 5 2 11 5 3 8 9 10 14 10 5 9 11 10 7 8 2 1 2 4 3 3 2 2 2 2 2
23 22 21 20 22 23 22 23 23 23 23 22 15 8 8 8 11 14 11 9 11 7 2 1 1 2 1 3 4 6 10 13 14 14 14 18 17 13 12 12 8 3 5 6 4 6 7 9 11 6 3 3 4 7 7 1 1 5 11 13 9 13 14 8 10 10 12 15 16 10 10 13 14 12 2 3 2 3 4 4 4 3 2 0 1 3 2
22 21 21 21 21 22 22 22 21 21 23 18 2 3 3 8 9 12 13 12 10 8 4 3 2 2 2 3 4 7 10 12 14 14 14 12 13 14 13 12 10 10 7 6 6 6 8 10 6 6 5 4 5 6 5 6 8 11 15 16 15 17 14 12 14 16 17 17 14 8 5 10 14 8 3 3 2 3 3 2 2 3 1 1 1 2 4
22 21 21 23 23 22 21 20 20 21 20 5 5 2 3 5 9 13 13 11 9 3 4 4 3 4 1 2 3 5 5 9 13 15 15 11 11 11 12 11 11 11 8 9 10 8 9 7 7 7 5 8 6 2 5 5 8 12 18 18 16 15 14 13 15 16 17 16 12 6 6 8 1 4 2 3 3 1 2 2 2 1 1 1 1 3 3
22 21 20 20 22 22 21 21 21 20 16 3 4 5 4 6 7 14 18 13 12 7 2 3 7 1 1 2 3 8 9 9 10 11 13 11 11 11 9 8 8 11 11 9 7 9 5 4 6 7 7 11 8 6 6 6 9 9 19 15 14 15 14 17 16 15 16 17 9 4 0 2 2 2 3 4 3 3 2 2 2 2 1 1 3 4 5
21 23 23 21 21 22 21 21 21 19 9 9 10 7 3 4 1 13 20 14 11 5 4 5 3 3 2 2 1 1 8 10 8 4 4 7 9 10 7 9 8 10 8 8 7 3 6 5 7 7 8 12 11 3 4 7 10 16 15 9 12 11 13 13 13 13 11 2 1 6 8 7 8 9 4 6 4 3 2 2 2 1 1 2 3 4 5
23 22 21 22 22 21 21 21 22 15 8 11 14 16 8 7 3 17 19 12 6 3 4 3 5 2 2 3 1 1 3 4 4 6 5 8 6 7 5 7 6 7 11 8 6 5 4 7 8 12 11 7 4 3 5 10 13 19 17 11 10 10 11 11 8 0 2 2 5 9 12 6 4 3 5 5 4 3 3 2 1 1 2 2 3 4 3
23 22 22 22 22 21 19 19 20 21 16 8 8 11 10 9 7 15 8 8 3 1 3 4 4 4 3 1 1 2 8 8 6 8 4 6 5 6 5 5 7 4 6 9 3 1 2 3 9 8 2 8 8 3 5 13 18 17 14 14 12 11 8 6 4 5 3 3 1 2 3 4 5 4 3 4 3 3 3 2 1 3 3 3 3 2 3
21 20 19 19 21 21 20 19 10 6 7 6 7 5 6 17 15 21 18 8 5 4 3 3 3 7 3 2 5 3 6 3 6 9 7 2 4 7 4 3 4 5 4 5 4 7 8 8 7 4 7 4 4 6 8 14 15 15 15 13 14 10 3 3 7 5 4 3 3 2 4 4 5 4 5 4 3 3 2 0 1 2 4 3 3 3 3
18 17 16 17 19 14 6 7 6 5 5 6 5 8 17 19 20 15 16 8 3 4 5 4 6 8 8 8 7 3 6 3 1 4 2 3 1 0 3 5 4 5 2 5 5 8 9 6 5 6 5 6 10 10 11 11 14 15 14 14 12 11 10 9 2 7 5 4 3 3 4 3 4 4 3 3 3 2 1 2 3 3 4 6 5 4 4
16 15 15 15 6 3 6 5 4 7 5 5 7 13 18 13 4 7 8 4 3 0 4 7 6 8 12 7 2 2 7 6 4 3 4 4 5 2 3 3 6 3 3 4 5 9 9 7 5 8 8 10 12 13 16 13 12 15 16 12 3 4 4 5 7 9 8 4 3 3 3 4 3 2 3 3 2 1 2 3 3 4 5 7 7 6 5
16 12 3 1 2 5 4 6 4 6 12 15 13 5 6 9 5 5 3 4 1 3 3 3 9 2 3 6 4 7 5 4 3 6 1 1 4 2 3 4 5 4 7 6 7 4 2 3 6 8 12 13 13 11 11 13 8 1 1 4 4 4 5 7 8 8 5 1 3 4 3 4 5 4 4 3 1 2 3 3 3 4 5 6 6 6 8
11 4 3 4 4 6 4 1 7 19 11 7 5 3 4 2 4 4 4 2 2 5 4 9 10 11 11 10 2 5 4 8 6 6 6 6 5 4 4 4 5 5 3 2 3 9 5 5 4 6 10 13 12 16 8 4 4 3 4 4 5 5 6 6 4 4 5 4 1 2 3 4 5 4 2 1 1 2 3 3 4 4 5 6 6 7 9
4 4 4 4 6 4 1 3 9 10 3 3 2 4 4 3 5 4 3 3 3 2 4 7 5 8 13 15 12 9 4 9 10 9 7 4 2 4 2 2 2 3 5 7 3 4 4 5 4 4 10 9 12 9 5 5 6 4 5 6 7 7 6 6 5 4 5 6 5 4 4 3 3 1 1 2 3 4 4 4 4 5 5 6 7 8 9
2 2 1 4 2 1 2 3 2 2 3 4 1 1 2 3 3 1 3 6 6 3 1 2 6 7 6 6 10 10 6 2 1 3 4 4 2 5 2 4 2 2 2 5 1 3 2 0 1 6 10 11 12 5 5 6 5 6 5 5 6 6 7 6 6 4 4 4 3 2 3 2 1 1 2 2 3 5 5 5 5 6 6 7 8 8 8
5 5 2 3 2 1 1 1 2 2 1 1 3 5 4 1 2 1 2 6 7 2 3 5 8 10 11 14 11 6 1 0 3 2 3 6 6 5 4 0 1 4 4 2 3 1 2 3 3 6 9 9 1 3 6 8 4 6 6 6 6 6 6 6 6 4 4 3 3 1 1 0 1 2 2 3 4 5 6 6 7 7 7 7 7 7 8
8 9 5 3 2 1 2 3 3 3 5 3 2 3 2 3 5 6 4 1 2 2 2 3 1 3 4 4 3 1 3 2 3 1 2 5 2 2 3 2 2 3 3 2 2 2 4 6 6 11 7 4 5 6 5 5 6 6 7 6 5 5 6 5 4 3 2 2 1 0 1 1 2 3 3 4 5 6 6 6 7 8 7 7 7 6 7
5 2 2 1 2 3 3 7 2 1 2 2 5 8 4 2 2 1 0 3 2 2 6 10 9 12 9 3 6 3 2 2 2 2 0 1 3 4 3 5 5 1 3 1 2 5 5 4 9 9 1 2 2 4 6 7 7 7 6 6 6 5 5 5 4 3 2 2 0 0 0 1 4 4 3 4 5 7 7 8 7 7 7 7 7 7 8
4 2 2 2 3 3 3 4 2 4 8 6 3 3 5 11 8 6 8 3 5 6 9 7 10 12 8 2 4 0 2 3 1 4 3 4 2 2 3 4 3 2 3 4 1 2 2 8 8 6 5 6 7 6 6 6 7 7 7 6 5 5 5 5 4 3 2 2 2 2 3 3 3 4 4 5 5 6 6 8 7 6 7 6 7 7 8
5 5 4 3 4 3 4 2 2 3 2 3 4 4 4 4 4 7 3 2 3 1 10 10 8 6 5 2 6 5 3 3 4 3 2 1 4 4 1 2 2 2 2 1 3 8 12 11 10 11 6 7 8 7 8 8 7 6 9 9 6 6 5 4 3 3 4 3 2 2 3 2 3 4 5 6 6 6 6 8 7 7 6 6 8 8 8
2 2 2 1 4 3 2 5 5 4 2 2 2 5 5 4 2 1 1 1 6 4 6 4 4 3 9 3 3 1 1 0 3 2 3 2 4 1 2 3 3 3 5 6 5 6 6 11 9 2 7 9 11 9 8 7 7 7 6 6 7 6 5 4 4 3 2 2 2 3 3 4 4 4 5 6 7 7 7 7 8 7 6 8 9 8 8
4 1 2 4 4 3 6 5 2 1 1 0 1 1 3 1 2 3 1 1 1 7 11 9 7 4 3 2 2 3 2 1 2 2 2 2 3 3 2 1 2 2 3 5 11 7 10 5 2 6 5 8 10 13 10 9 6 7 7 7 6 5 5 4 3 3 2 2 3 3 4 4 4 5 5 7 7 8 7 7 7 6 6 7 7 8 8
1 3 5 4 1 1 1 2 3 7 1 1 1 1 1 4 4 2 1 2 4 9 6 8 5 6 2 2 3 3 2 2 3 3 2 0 4 5 5 5 3 4 5 7 9 9 6 1 3 7 8 9 8 8 8 8 8 8 7 7 6 5 4 4 3 3 1 2 2 3 5 5 4 5 6 6 6 8 6 5 6 7 7 7 8 7 7
2 1 2 3 1 1 0 1 1 3 1 1 1 1 1 1 3 2 0 2 1 4 3 5 3 4 2 3 1 1 1 1 2 1 3 5 4 1 3 1 4 6 7 6 6 3 1 4 6 8 8 10 9 9 10 8 5 6 6 5 4 4 3 2 2 2 3 3 4 5 5 4 4 4 6 7 7 5 7 7 8 7 8 7 7 7 7
2 1 1 1 3 3 5 4 7 5 4 6 3 2 1 1 1 3 2 2 3 3 3 3 2 3 3 2 2 3 3 3 3 5 4 4 2 4 5 6 8 9 6 1 0 1 4 5 6 7 10 8 7 9 8 8 6 6 4 3 3 2 1 2 3 3 4 4 3 4 4 5 6 5 7 5 6 6 7 7 7 6 5 5 6 7 7
1 2 2 0 1 2 0 1 1 0 1 1 4 1 3 4 3 2 1 1 5 9 8 3 4 3 2 5 3 1 1 2 1 2 1 4 3 5 6 9 8 0 1 3 2 2 3 3 3 7 8 9 9 8 7 7 6 4 3 3 3 3 1 2 3 3 3 3 4 4 5 6 6 5 4 4 5 4 5 4 3 3 4 5 5 6 7
Wind_Direction
237 208 231 321 323 319 5 339 349 4 16 29 332 220 163 208 145 50 359 192 173 166 197 191 200 217 238 57 305 86 313 231 340 104 190 223 233 238 225 228 238 239 248 256 268 252 261 236 258 253 232 260 337 329 336 328 360 352 286 6 41 41 254 263 258 259 271 275 290 81 92 224 245 237 248 257 254 260 269 271 326 286 277 247 246 243 212
241 216 136 250 268 278 276 270 4 0 58 40 279 166 172 148 6 21 28 5 207 181 188 201 207 219 226 226 243 232 237 148 194 191 237 190 200 212 219 11 226 264 57 142 250 192 266 230 260 266 316 245 131 359 26 17 69 309 283 292 274 261 259 265 321 294 268 249 214 122 68 101 6 333 356 358 321 333 306 282 218 255 206 241 265 261 259
226 193 199 217 239 246 231 245 358 17 18 151 62 152 123 99 359 242 307 356 252 212 248 218 208 212 220 222 235 236 241 241 246 239 237 194 192 130 248 242 154 199 97 234 42 300 238 280 191 204 258 221 79 3 19 345 115 31 281 176 85 232 248 285 273 266 267 270 271 283 298 20 334 291 290 245 332 314 328 304 311 280 293 239 243 279 241
239 239 223 228 236 228 227 239 275 328 50 72 70 184 123 212 154 192 47 14 350 302 337 342 219 216 218 231 239 242 244 243 152 200 246 228 227 235 235 23 187 230 206 226 243 243 186 210 249 196 223 180 34 269 356 17 96 143 133 3 167 227 257 214 238 262 272 275 290 137 204 264 262 271 275 281 277 271 246 262 261 266 284 279 267 277 283
235 237 229 226 232 232 226 210 198 212 158 122 110 28 241 289 153 168 181 62 278 227 24 184 207 213 203 218 209 230 234 242 286 191 226 218 218 225 227 210 211 220 225 239 252 252 248 221 243 247 257 124 92 7 113 47 32 312 287 323 100 229 235 224 241 246 260 269 275 286 27 275 273 276 275 272 268 266 264 258 262 282 296 270 238 261 269
234 233 229 226 229 236 223 224 205 204 140 138 102 263 233 173 257 78 324 213 195 190 241 202 207 222 198 225 360 269 223 213 224 99 202 80 141 192 307 204 222 223 220 200 231 193 222 188 232 137 304 20 329 174 75 82 336 357 250 285 193 238 265 260 271 267 266 274 282 294 292 273 270 271 274 276 277 268 255 254 257 260 257 273 286 283 277
231 226 226 230 226 224 227 214 195 154 165 133 138 172 274 75 341 24 315 179 331 196 60 115 192 217 202 234 238 240 221 230 230 215 43 156 256 216 224 207 212 226 222 188 220 231 258 244 175 165 8 167 18 293 282 169 54 46 36 351 279 293 262 256 287 292 286 285 283 284 286 283 274 264 266 270 272 271 270 269 264 260 262 262 265 268 271
234 235 232 230 227 225 224 221 191 165 133 117 97 261 250 228 184 197 61 62 79 58 81 87 123 200 206 227 228 222 228 237 219 38 106 245 238 76 212 149 107 125 63 256 240 250 336 332 283 224 96 267 175 256 246 267 72 39 324 328 290 199 263 92 247 293 279 281 282 282 285 284 277 278 273 266 263 267 270 268 268 268 263 260 260 262 266
230 228 226 224 225 223 223 219 195 180 153 91 184 252 121 334 31 346 137 144 158 96 114 143 190 208 226 230 241 144 218 240 29 100 18 231 264 284 268 124 119 141 154 244 262 214 183 171 223 173 171 257 56 166 338 82 305 327 192 298 315 320 256 341 340 301 280 277 280 293 293 287 282 277 266 259 260 263 254 255 252 256 262 264 268 260 261
236 235 232 228 227 224 219 219 201 192 176 130 127 193 160 67 305 79 338 119 146 135 116 146 146 225 213 206 185 223 246 88 133 164 107 53 57 53 110 162 133 219 216 249 233 131 105 99 113 136 331 337 298 268 262 284 237 287 191 268 249 221 213 290 286 282 257 278 2 331 325 303 281 252 248 251 250 245 253 255 263 260 269 272 260 277 37
228 226 227 225 226 221 221 220 218 191 166 193 174 189 153 176 146 108 351 158 278 154 168 203 197 300 117 203 159 120 161 125 168 204 181 110 78 54 65 72 157 255 253 101 96 125 154 262 296 270 261 248 252 244 240 242 223 206 194 236 225 236 249 265 219 262 277 286 75 255 310 266 249 9 55 263 264 280 261 256 254 265 241 277 349 118 160
242 232 223 223 219 220 218 218 217 197 178 200 149 151 172 111 80 77 174 185 220 136 201 201 194 217 167 118 134 159 159 189 116 15 174 123 165 96 102 22 164 251 80 102 119 122 229 261 221 289 236 249 253 255 247 245 242 217 217 227 247 251 258 259 203 251 267 69 43 271 244 243 345 57 32 80 348 291 269 269 267 251 114 147 177 156 170
243 248 243 228 229 231 225 214 211 209 193 161 173 207 167 204 137 161 166 177 209 181 183 235 210 167 134 143 152 197 202 108 127 217 204 218 234 168 206 180 222 212 108 125 108 199 286 290 307 282 277 342 292 262 253 247 245 232 220 220 229 245 247 212 240 189 3 231 226 239 239 53 306 282 232 128 228 257 263 270 232 175 197 194 193 192 179
236 231 225 223 225 226 230 233 229 219 189 159 190 195 140 174 160 168 177 155 233 196 197 185 170 173 190 208 198 196 125 215 178 103 228 222 212 239 232 207 216 78 132 110 91 120 255 164 285 300 263 27 330 306 245 251 245 251 242 218 216 232 239 202 249 195 221 232 215 235 325 322 295 287 225 170 243 215 223 276 307 174 209 188 190 206 201
237 235 231 228 225 224 227 225 224 230 210 177 186 142 160 184 168 168 161 113 197 202 196 206 206 205 200 192 185 209 221 220 196 238 196 17 222 231 231 72 104 131 126 176 124 74 178 95 261 236 292 179 228 242 351 258 37 49 349 260 218 214 214 218 185 262 197 231 263 269 257 252 306 53 353 317 295 19 322 74 283 158 198 185 155 183 278
235 234 233 231 229 226 226 225 224 222 219 201 181 179 188 181 148 111 161 169 165 248 230 206 167 154 179 206 197 194 206 191 195 176 210 200 236 285 189 114 183 113 85 69 96 103 151 167 227 147 236 208 248 68 279 29 330 82 32 219 198 215 215 222 216 240 233 201 226 241 246 252 96 251 147 338 112 61 334 278 280 158 155 208 168 277 279
235 233 234 231 229 229 227 227 226 222 221 200 184 195 204 176 171 179 170 172 199 218 36 170 159 126 117 122 135 206 208 196 174 168 207 215 194 217 316 7 351 182 183 101 192 129 121 105 340 254 313 146 107 230 328 40 231 315 109 83 96 159 195 190 230 226 232 247 252 251 254 256 251 208 288 152 121 135 289 296 299 67 222 187 185 229 262
243 239 235 233 230 228 228 227 222 222 222 212 185 191 198 184 192 161 185 192 209 243 191 163 164 184 192 180 177 147 112 113 93 91 159 76 58 205 212 54 141 289 200 170 194 146 208 183 205 219 231 199 167 1 248 127 148 214 171 127 148 154 213 196 215 229 236 240 250 263 263 256 255 259 271 119 181 92 259 249 290 177 215 207 203 231 249
244 242 238 235 233 229 229 226 224 223 221 217 190 199 210 188 188 189 186 194 204 237 175 177 178 193 162 71 127 149 183 171 160 149 179 113 221 175 139 212 167 169 176 176 185 180 207 227 148 192 214 234 134 219 114 114 220 50 117 98 118 254 140 281 246 224 235 236 250 251 272 279 277 269 295 131 179 240 244 261 119 194 223 230 218 241 248
239 240 241 239 236 232 232 233 229 227 221 218 197 203 180 187 191 187 183 201 203 233 200 180 183 208 192 188 172 168 136 152 193 170 173 179 108 116 126 180 234 96 145 153 205 204 162 220 210 193 227 228 237 137 340 236 136 177 175 229 180 199 152 222 203 197 230 231 251 265 267 250 185 176 80 211 193 261 302 304 286 185 237 255 241 228 241
238 236 234 233 235 235 232 232 231 226 228 226 203 188 206 193 195 204 206 195 199 233 235 179 197 209 204 211 202 182 175 191 180 198 206 169 168 143 177 212 178 149 188 166 187 210 169 207 171 196 245 209 232 110 217 158 290 246 176 234 253 200 218 233 230 176 222 219 211 218 231 235 183 175 240 203 214 268 308 323 305 300 298 288 297 271 263
248 240 235 236 235 232 231 232 231 228 230 232 216 170 218 191 186 195 203 207 220 224 314 196 194 212 214 218 210 201 207 214 197 173 159 195 202 205 165 125 168 163 178 114 80 54 295 153 38 137 215 207 334 216 173 172 238 155 348 147 268 192 209 216 249 173 178 230 252 209 163 234 180 204 239 263 275 283 285 283 280 289 285 275 271 280 286
251 250 247 240 235 233 231 229 229 226 224 228 223 183 210 164 186 178 149 202 236 302 205 221 291 272 272 249 230 215 219 221 198 176 179 173 206 221 203 183 219 178 148 195 186 194 171 149 201 173 81 214 195 204 249 223 265 113 222 202 248 246 236 10 9 245 245 275 268 276 231 249 253 223 222 253 269 270 270 267 277 260 269 272 273 283 287
244 242 244 248 247 242 235 235 237 232 227 224 223 169 207 185 174 142 157 193 199 230 240 215 211 220 215 226 197 186 224 225 208 212 204 188 209 224 225 238 98 105 217 211 323 156 170 145 219 142 220 203 113 205 208 226 225 223 248 259 226 247 201 182 231 252 276 261 248 225 245 249 249 261 263 255 251 261 269 273 266 272 266 190 184 252 242
246 246 243 241 242 241 240 236 237 236 235 230 222 202 164 154 166 169 155 184 201 202 228 184 217 228 225 211 191 206 216 213 204 213 210 204 214 207 224 201 177 195 218 184 110 78 94 170 212 188 225 220 152 230 208 237 252 163 233 249 250 269 167 198 229 239 234 250 261 260 249 249 258 263 272 272 271 268 268 258 307 347 80 102 127 133 162
246 243 239 239 243 242 239 237 235 237 237 233 226 179 189 196 172 178 184 201 158 170 222 232 247 252 165 181 204 213 199 197 203 211 212 213 212 217 225 91 211 223 223 134 171 200 196 214 207 218 216 237 165 227 210 202 251 139 217 241 221 193 98 215 169 218 238 257 264 264 269 273 267 255 246 250 262 272 246 141 173 137 142 137 136 167 222
245 247 247 242 238 237 239 242 237 234 237 238 236 188 190 190 175 183 187 185 172 283 212 236 220 262 210 206 202 167 185 194 200 210 217 217 223 219 223 220 220 197 181 172 183 196 208 222 207 226 208 228 194 217 222 212 200 213 236 244 109 210 239 177 138 249 244 238 249 239 246 271 270 252 218 233 241 268 198 137 155 172 180 183 208 206 219
248 243 243 244 246 247 236 233 239 239 237 234 228 204 171 174 194 200 199 188 189 229 121 181 194 254 85 283 228 177 180 186 193 203 211 219 218 216 222 225 221 181 187 174 183 198 203 206 221 210 211 204 196 231 207 213 122 239 242 240 184 222 231 204 212 227 250 245 243 233 242 264 264 281 100 128 147 187 193 208 183 173 164 153 283 291 267
244 246 244 237 233 235 238 239 232 234 238 237 183 174 150 217 203 200 197 196 202 230 231 184 89 37 212 252 99 171 193 186 194 202 210 214 211 214 216 213 203 198 198 203 219 215 213 223 210 196 209 168 181 226 165 187 203 221 232 225 214 226 230 223 235 246 252 259 265 250 214 255 275 293 109 144 139 190 194 152 146 139 155 124 263 277 289
245 242 244 247 244 237 235 236 237 234 234 216 101 139 192 240 204 206 199 192 185 180 211 208 213 225 56 97 218 183 159 190 198 201 204 202 208 209 211 203 207 204 197 206 204 217 214 230 224 219 197 156 199 196 204 215 220 234 239 236 230 234 226 234 241 239 248 252 258 274 264 269 8 55 83 114 109 122 192 165 142 155 108 10 303 291 288
239 239 239 240 242 246 246 242 236 232 232 166 139 156 167 242 212 182 187 189 183 180 205 204 226 84 280 233 153 182 175 178 196 202 205 203 206 206 207 206 221 206 209 210 213 226 211 216 209 220 190 188 203 204 204 197 235 246 245 228 227 230 231 234 232 232 243 256 272 77 320 227 121 66 223 178 138 128 133 140 119 101 70 355 295 295 291
250 247 243 240 241 243 240 239 240 239 217 159 202 195 182 257 138 162 181 178 152 179 167 197 204 166 222 223 203 254 176 183 177 177 203 196 218 215 214 194 214 200 204 218 219 226 213 222 221 226 210 201 203 224 204 222 231 244 248 211 211 226 232 235 235 239 235 264 112 282 257 228 170 216 244 121 143 119 148 135 112 97 31 291 297 288 282
237 240 243 246 243 242 243 247 248 239 204 209 219 237 240 4 189 163 171 153 151 181 175 200 204 167 195 227 69 289 161 121 175 174 216 189 208 184 217 197 209 210 206 216 199 229 199 207 220 235 226 163 200 208 215 221 233 241 246 235 233 231 235 238 238 4 120 150 176 219 251 272 144 103 103 137 135 153 144 146 116 357 299 281 272 260 241
241 236 237 237 242 242 241 245 248 253 252 231 234 223 211 152 172 165 148 135 137 167 162 180 178 194 209 43 70 181 164 167 184 168 207 176 188 182 200 167 184 207 187 203 191 159 234 216 222 231 126 204 206 219 226 233 235 248 253 250 244 244 243 226 184 201 165 136 114 30 38 89 105 117 126 148 152 128 118 104 18 313 283 272 265 262 289
245 242 241 243 244 243 239 240 238 229 216 221 246 233 178 177 166 166 161 160 146 208 167 227 175 194 166 162 218 199 161 143 173 183 191 146 149 189 176 167 175 193 200 143 223 211 218 216 213 214 214 199 209 228 233 239 238 238 240 244 245 246 85 241 240 174 136 126 110 130 117 130 147 184 185 176 164 167 129 240 335 316 300 292 303 300 319
242 243 248 247 248 249 258 259 233 217 218 212 221 147 168 187 178 174 184 184 181 183 185 202 177 205 179 199 199 191 142 183 106 116 152 121 34 252 188 183 222 207 102 175 221 197 221 172 135 232 190 216 221 215 233 230 235 238 238 242 243 227 227 239 163 117 113 94 121 140 149 159 189 194 160 178 171 139 52 323 304 310 295 298 303 315 313
233 236 237 246 239 211 231 229 175 204 222 147 171 172 178 163 152 175 193 220 250 239 194 184 194 203 196 207 56 193 151 177 148 117 145 159 184 168 163 191 212 155 156 216 209 219 224 168 200 232 213 223 232 228 233 240 243 249 253 252 183 107 116 97 116 122 106 96 109 168 179 195 203 193 183 181 157 83 332 301 318 325 310 306 307 306 313
236 229 197 93 138 225 229 213 199 177 162 149 136 131 170 159 197 170 191 221 231 148 238 184 217 167 65 158 192 161 148 175 112 150 178 206 150 225 202 214 213 177 220 213 227 136 79 158 213 221 239 231 243 247 244 246 251 301 60 118 146 127 112 117 137 128 117 110 258 211 217 241 237 208 182 188 135 277 280 287 298 286 281 283 289 304 311
247 219 172 167 181 214 207 211 197 166 156 145 143 161 209 184 155 197 186 171 166 207 203 210 202 169 170 185 139 143 190 160 168 167 174 190 160 208 156 188 202 186 242 184 242 129 216 210 212 227 242 240 243 243 222 114 103 94 87 92 111 121 120 125 147 158 195 211 99 108 160 206 206 168 114 212 278 265 273 280 278 280 285 292 296 300 294
130 184 186 175 210 209 147 252 178 156 84 163 188 177 211 192 180 210 128 168 202 232 151 215 189 189 185 179 157 187 172 157 163 192 181 169 184 177 168 137 214 150 215 202 204 121 191 219 209 225 249 227 235 226 136 159 127 121 107 103 107 111 119 114 107 82 90 87 95 87 71 76 72 117 210 247 266 269 259 250 268 276 286 287 289 292 287
173 96 136 204 209 172 225 151 70 41 137 149 199 266 143 199 207 172 148 208 202 216 189 185 145 177 193 181 166 182 173 124 355 87 126 170 149 87 142 175 140 143 222 202 167 92 99 119 219 212 237 231 233 171 130 118 121 113 111 112 106 110 117 115 107 92 98 109 107 110 111 94 125 218 258 278 277 282 287 292 287 281 275 279 278 274 283
184 173 161 106 106 125 76 18 155 120 260 203 176 206 185 204 68 354 205 187 205 162 233 176 181 177 189 182 190 154 161 147 133 150 141 193 179 163 188 182 247 179 212 186 97 92 103 226 218 242 239 232 90 111 152 134 120 122 120 123 117 117 124 125 119 92 110 130 135 133 125 96 6 289 259 265 264 259 269 270 273 272 269 268 269 274 277
138 114 104 96 129 212 145 213 215 176 177 163 134 222 167 168 203 172 201 223 329 125 196 36 330 66 6 56 24 355 152 164 140 150 150 177 118 102 152 172 122 200 200 74 113 119 194 221 231 242 231 202 158 160 130 126 123 128 123 123 121 122 123 130 139 137 118 116 139 140 220 227 257 250 252 240 258 269 261 255 258 268 268 269 270 271 273
105 117 103 163 138 231 148 234 163 67 241 173 166 196 155 194 234 86 110 218 167 185 185 161 184 160 187 184 166 138 120 149 149 77 4 185 118 175 152 192 190 178 64 94 159 204 220 232 231 241 190 102 156 160 138 143 147 129 126 125 125 131 134 126 134 128 145 94 123 218 113 239 269 269 243 240 235 256 271 274 268 266 269 273 269 270 270
131 169 148 153 200 193 133 227 111 183 216 212 188 203 171 206 201 176 197 196 167 194 176 191 169 181 168 147 61 227 145 171 139 130 199 146 144 194 155 194 129 114 161 201 172 280 11 265 246 240 215 194 174 171 160 146 146 144 139 133 145 141 142 145 154 154 178 199 223 212 240 241 244 263 268 265 261 250 257 269 270 276 274 273 275 274 273
166 169 149 178 220 199 175 228 147 248 270 171 196 178 174 227 164 206 204 92 130 141 169 179 166 137 111 284 147 168 123 135 132 191 136 119 151 206 163 43 86 144 170 124 194 210 225 235 241 234 197 164 148 150 135 134 118 128 132 153 167 147 152 154 172 170 200 200 212 198 239 236 241 251 270 267 265 267 261 263 266 265 270 273 271 271 274
164 164 155 189 224 220 137 200 217 203 174 216 225 194 191 187 201 110 118 173 161 163 99 74 111 145 143 163 84 19 75 114 145 189 108 128 172 130 76 138 193 172 184 213 214 232 243 241 238 83 130 141 145 149 151 148 143 146 149 125 136 161 165 169 188 193 214 194 217 224 238 248 258 263 267 279 276 270 266 267 267 262 257 259 267 271 275
184 154 144 191 207 159 208 225 102 47 334 218 258 220 241 244 141 186 244 235 217 139 139 135 125 122 85 291 64 149 137 194 99 255 163 165 65 67 143 99 207 216 191 200 228 223 236 245 173 164 151 136 152 146 151 151 158 156 150 153 160 166 173 179 190 212 180 195 227 240 262 259 257 261 266 268 277 279 274 270 271 272 265 265 262 262 262
113 138 182 199 209 165 304 4 148 186 203 318 268 327 166 160 202 171 215 269 179 160 161 139 152 106 154 143 134 152 200 196 151 196 94 195 163 186 160 203 174 233 234 194 229 230 234 128 134 111 132 135 143 143 133 139 151 160 162 164 178 182 172 176 198 212 218 245 252 247 254 258 256 262 267 271 276 279 279 276 275 270 263 256 261 262 265
116 69 33 94 99 304 231 90 108 264 305 10 342 279 283 210 156 221 240 137 229 115 128 86 99 90 151 123 159 154 198 179 156 124 110 189 185 187 85 189 216 206 228 206 215 228 172 146 135 131 141 137 128 137 141 143 147 140 153 160 154 151 165 180 205 216 223 228 231 235 247 259 260 253 259 265 270 280 290 289 278 268 266 256 250 259 272
326 70 147 19 175 203 136 163 177 204 224 223 180 214 145 198 147 188 225 147 145 116 78 142 158 115 130 66 131 150 213 136 136 189 175 185 143 144 195 217 226 219 227 53 20 139 156 157 151 133 136 147 146 141 139 151 150 158 153 147 137 118 171 185 221 245 254 248 243 260 261 256 251 257 267 280 283 285 285 280 268 259 256 270 278 278 280
105 141 200 17 70 95 11 288 343 70 264 181 148 189 141 177 198 220 329 201 171 166 181 149 115 119 116 183 199 160 46 54 200 81 120 250 157 157 205 214 234 183 170 181 190 127 106 72 125 149 147 145 152 154 141 134 136 132 148 169 157 172 193 227 225 237 252 276 256 241 261 265 273 276 282 272 269 276 277 289 293 285 293 297 290 289 287